AFR605 TFFF-TFFR

Flight info

Callsign AFR605
Flight time 0h 33m
Altitude 14000
Route DOM2R DOM DOM1L
Aircraft A320/M-SDE2E3FGIJ1RWY/HB1

Departure

Time 2026-05-07 09:46
Airport Martinique Aimé Césaire International Airport (TFFF)

Arrival

Time 2026-05-07 10:19
Airport Maryse Condé International Airport (TFFR)
Time Latitude Longitude Altitude Speed Heading
2026-05-07 09:19 14.59521 -61.00142 31 ft 0 kts 46°
2026-05-07 09:36 14.59512 -61.00151 31 ft 2 kts 45°
2026-05-07 09:36 14.59502 -61.00163 31 ft 2 kts 46°
2026-05-07 09:37 14.59491 -61.00174 31 ft 2 kts 46°
2026-05-07 09:37 14.59481 -61.00185 30 ft 2 kts 59°
2026-05-07 09:37 14.59475 -61.00199 30 ft 2 kts 77°
2026-05-07 09:37 14.59474 -61.00214 30 ft 2 kts 96°
2026-05-07 09:38 14.59477 -61.00230 30 ft 2 kts 114°
2026-05-07 09:38 14.59485 -61.00243 31 ft 2 kts 133°
2026-05-07 09:38 14.59490 -61.00248 31 ft 1 kts 142°
2026-05-07 09:38 14.59493 -61.00250 31 ft 0 kts 139°
2026-05-07 09:40 14.59486 -61.00243 30 ft 2 kts 139°
2026-05-07 09:40 14.59462 -61.00221 30 ft 6 kts 134°
2026-05-07 09:40 14.59422 -61.00172 29 ft 10 kts 127°
2026-05-07 09:41 14.59386 -61.00102 30 ft 11 kts 109°
2026-05-07 09:41 14.59336 -61.00043 30 ft 11 kts 166°
2026-05-07 09:41 14.59251 -61.00026 29 ft 13 kts 169°
2026-05-07 09:41 14.59161 -61.00045 28 ft 14 kts 241°
2026-05-07 09:42 14.59138 -61.00155 28 ft 17 kts 261°
2026-05-07 09:42 14.59117 -61.00285 27 ft 19 kts 261°
2026-05-07 09:42 14.59095 -61.00427 28 ft 20 kts 261°
2026-05-07 09:42 14.59068 -61.00576 30 ft 21 kts 259°
2026-05-07 09:43 14.59039 -61.00731 31 ft 22 kts 260°
2026-05-07 09:43 14.59012 -61.00894 33 ft 23 kts 260°
2026-05-07 09:43 14.58984 -61.01059 34 ft 23 kts 260°
2026-05-07 09:43 14.58956 -61.01232 34 ft 25 kts 261°
2026-05-07 09:44 14.58927 -61.01409 34 ft 24 kts 259°
2026-05-07 09:44 14.58896 -61.01577 35 ft 23 kts 260°
2026-05-07 09:44 14.58874 -61.01734 36 ft 16 kts 285°
2026-05-07 09:44 14.58898 -61.01805 35 ft 7 kts 239°
2026-05-07 09:45 14.58858 -61.01813 36 ft 5 kts 139°
2026-05-07 09:45 14.58857 -61.01773 36 ft 6 kts 81°
2026-05-07 09:45 14.58881 -61.01627 35 ft 52 kts 79°
2026-05-07 09:45 14.58990 -61.00992 34 ft 124 kts 80°
2026-05-07 09:46 14.59174 -60.99909 112 ft 173 kts 79°
2026-05-07 09:46 14.59371 -60.98729 852 ft 169 kts 79°
2026-05-07 09:46 14.59580 -60.97573 1631 ft 164 kts 78°
2026-05-07 09:46 14.59802 -60.96384 2073 ft 177 kts 78°
2026-05-07 09:47 14.60023 -60.95074 2459 ft 193 kts 80°
2026-05-07 09:47 14.60238 -60.93651 2808 ft 212 kts 81°
2026-05-07 09:47 14.60478 -60.92128 3135 ft 234 kts 79°
2026-05-07 09:47 14.60777 -60.90436 3601 ft 251 kts 76°
2026-05-07 09:48 14.61536 -60.88793 4229 ft 261 kts 49°
2026-05-07 09:48 14.63010 -60.87720 4992 ft 266 kts 21°
2026-05-07 09:48 14.64857 -60.87471 5742 ft 273 kts 354°
2026-05-07 09:48 14.66715 -60.87928 6505 ft 277 kts 346°
2026-05-07 09:49 14.68582 -60.88451 7271 ft 280 kts 346°
2026-05-07 09:49 14.70457 -60.88969 8047 ft 283 kts 346°
2026-05-07 09:49 14.72368 -60.89490 8820 ft 286 kts 346°
2026-05-07 09:49 14.74287 -60.90011 9575 ft 288 kts 346°
2026-05-07 09:50 14.76238 -60.90538 10314 ft 291 kts 347°
2026-05-07 09:50 14.78242 -60.91076 10792 ft 304 kts 346°
2026-05-07 09:50 14.80340 -60.91639 11161 ft 319 kts 347°
2026-05-07 09:50 14.82518 -60.92225 11772 ft 325 kts 347°
2026-05-07 09:51 14.84725 -60.92819 12471 ft 327 kts 347°
2026-05-07 09:51 14.86912 -60.93407 13130 ft 329 kts 347°
2026-05-07 09:51 14.89137 -60.94006 13696 ft 332 kts 347°
2026-05-07 09:51 14.91395 -60.94612 13996 ft 333 kts 346°
2026-05-07 09:52 14.93617 -60.95341 14036 ft 333 kts 341°
2026-05-07 09:52 14.95748 -60.96295 14040 ft 334 kts 335°
2026-05-07 09:52 14.97816 -60.97416 14045 ft 334 kts 333°
2026-05-07 09:52 14.99859 -60.98560 14046 ft 335 kts 333°
2026-05-07 09:53 15.01902 -60.99709 14046 ft 334 kts 333°
2026-05-07 09:53 15.03963 -61.00867 14045 ft 334 kts 333°
2026-05-07 09:53 15.05990 -61.02004 14046 ft 333 kts 333°
2026-05-07 09:53 15.08044 -61.03155 14044 ft 333 kts 333°
2026-05-07 09:54 15.10066 -61.04287 14041 ft 334 kts 333°
2026-05-07 09:54 15.12117 -61.05435 14038 ft 334 kts 333°
2026-05-07 09:54 15.14178 -61.06589 14034 ft 334 kts 333°
2026-05-07 09:54 15.16219 -61.07732 14032 ft 334 kts 333°
2026-05-07 09:55 15.18263 -61.08875 14030 ft 334 kts 333°
2026-05-07 09:55 15.20317 -61.10025 14030 ft 335 kts 333°
2026-05-07 09:55 15.22364 -61.11171 14030 ft 335 kts 333°
2026-05-07 09:55 15.24422 -61.12326 14031 ft 334 kts 333°
2026-05-07 09:56 15.26487 -61.13484 14032 ft 334 kts 333°
2026-05-07 09:56 15.28525 -61.14627 14031 ft 333 kts 333°
2026-05-07 09:56 15.30566 -61.15772 14030 ft 333 kts 333°
2026-05-07 09:56 15.32602 -61.16914 14030 ft 333 kts 333°
2026-05-07 09:57 15.34639 -61.18056 14031 ft 333 kts 333°
2026-05-07 09:57 15.36699 -61.19212 14031 ft 334 kts 333°
2026-05-07 09:57 15.38740 -61.20358 14032 ft 334 kts 333°
2026-05-07 09:57 15.40782 -61.21505 14031 ft 334 kts 333°
2026-05-07 09:58 15.42831 -61.22656 14031 ft 334 kts 333°
2026-05-07 09:58 15.44871 -61.23801 14032 ft 334 kts 333°
2026-05-07 09:58 15.46938 -61.24964 14033 ft 334 kts 333°
2026-05-07 09:58 15.48988 -61.26117 14033 ft 334 kts 333°
2026-05-07 09:59 15.51018 -61.27258 14033 ft 334 kts 333°
2026-05-07 09:59 15.53079 -61.28425 14033 ft 334 kts 331°
2026-05-07 09:59 15.54966 -61.29802 14033 ft 335 kts 321°
2026-05-07 09:59 15.56624 -61.31530 14034 ft 337 kts 312°
2026-05-07 10:00 15.58101 -61.33429 14035 ft 337 kts 310°
2026-05-07 10:00 15.59544 -61.35346 14033 ft 338 kts 310°
2026-05-07 10:00 15.60981 -61.37262 14032 ft 338 kts 309°
2026-05-07 10:00 15.62438 -61.39198 14032 ft 338 kts 310°
2026-05-07 10:01 15.63889 -61.41119 14033 ft 338 kts 310°
2026-05-07 10:01 15.65339 -61.43036 14033 ft 338 kts 310°
2026-05-07 10:01 15.66786 -61.44949 14033 ft 338 kts 310°
2026-05-07 10:01 15.68231 -61.46859 14033 ft 338 kts 310°
2026-05-07 10:02 15.69681 -61.48772 14034 ft 338 kts 310°
2026-05-07 10:02 15.71148 -61.50710 14032 ft 338 kts 310°
2026-05-07 10:02 15.72596 -61.52622 14033 ft 337 kts 310°
2026-05-07 10:02 15.74045 -61.54533 14033 ft 337 kts 310°
2026-05-07 10:03 15.75501 -61.56457 14032 ft 337 kts 310°
2026-05-07 10:03 15.76949 -61.58370 14033 ft 338 kts 310°
2026-05-07 10:03 15.78389 -61.60273 14033 ft 338 kts 310°
2026-05-07 10:03 15.79840 -61.62190 14033 ft 338 kts 310°
2026-05-07 10:04 15.81288 -61.64105 13976 ft 338 kts 310°
2026-05-07 10:04 15.82756 -61.66048 13733 ft 336 kts 309°
2026-05-07 10:04 15.84182 -61.67934 13494 ft 335 kts 309°
2026-05-07 10:04 15.85632 -61.69852 13251 ft 334 kts 309°
2026-05-07 10:05 15.87058 -61.71742 13015 ft 333 kts 309°
2026-05-07 10:05 15.88481 -61.73627 12779 ft 332 kts 309°
2026-05-07 10:05 15.89904 -61.75513 12543 ft 331 kts 309°
2026-05-07 10:05 15.91323 -61.77391 12306 ft 330 kts 309°
2026-05-07 10:06 15.92745 -61.79276 12068 ft 329 kts 309°
2026-05-07 10:06 15.94143 -61.81132 11832 ft 327 kts 309°
2026-05-07 10:06 15.95551 -61.82999 11593 ft 327 kts 309°
2026-05-07 10:06 15.96947 -61.84853 11352 ft 326 kts 309°
2026-05-07 10:07 15.98335 -61.86695 11000 ft 324 kts 309°
2026-05-07 10:07 15.99729 -61.88546 10640 ft 322 kts 309°
2026-05-07 10:07 16.01106 -61.90373 10285 ft 320 kts 309°
2026-05-07 10:07 16.02591 -61.92084 9912 ft 317 kts 324°
2026-05-07 10:08 16.04554 -61.93012 9556 ft 312 kts 350°
2026-05-07 10:08 16.06692 -61.93125 9209 ft 306 kts
2026-05-07 10:08 16.08829 -61.93097 8850 ft 301 kts
2026-05-07 10:08 16.10911 -61.93075 8495 ft 298 kts
2026-05-07 10:09 16.12974 -61.93060 8139 ft 294 kts
2026-05-07 10:09 16.15031 -61.93050 7779 ft 291 kts
2026-05-07 10:09 16.17053 -61.93044 7421 ft 288 kts
2026-05-07 10:09 16.19035 -61.93046 7174 ft 281 kts
2026-05-07 10:10 16.20965 -61.93045 7012 ft 271 kts
2026-05-07 10:10 16.22820 -61.93045 6977 ft 257 kts
2026-05-07 10:10 16.24586 -61.93044 6979 ft 252 kts
2026-05-07 10:10 16.26329 -61.93043 6857 ft 246 kts
2026-05-07 10:11 16.28019 -61.93042 6655 ft 241 kts
2026-05-07 10:11 16.29690 -61.93029 6367 ft 239 kts
2026-05-07 10:11 16.31273 -61.92559 6032 ft 236 kts 33°
2026-05-07 10:11 16.32458 -61.91408 5746 ft 233 kts 57°
2026-05-07 10:12 16.33056 -61.89864 5534 ft 233 kts 81°
2026-05-07 10:12 16.33000 -61.88170 5349 ft 235 kts 98°
2026-05-07 10:12 16.32689 -61.86506 5159 ft 232 kts 99°
2026-05-07 10:12 16.32382 -61.84882 4968 ft 227 kts 99°
2026-05-07 10:13 16.32099 -61.83293 4779 ft 222 kts 98°
2026-05-07 10:13 16.31819 -61.81708 4588 ft 221 kts 98°
2026-05-07 10:13 16.31538 -61.80150 4402 ft 220 kts 99°
2026-05-07 10:13 16.31252 -61.78589 4212 ft 219 kts 99°
2026-05-07 10:14 16.30964 -61.77037 4023 ft 218 kts 99°
2026-05-07 10:14 16.30680 -61.75509 3829 ft 213 kts 99°
2026-05-07 10:14 16.30399 -61.74008 3649 ft 207 kts 99°
2026-05-07 10:14 16.30131 -61.72574 3579 ft 196 kts 99°
2026-05-07 10:15 16.29878 -61.71217 3397 ft 187 kts 99°
2026-05-07 10:15 16.29634 -61.69908 3123 ft 184 kts 99°
2026-05-07 10:15 16.29390 -61.68600 2847 ft 180 kts 99°
2026-05-07 10:15 16.29155 -61.67334 2582 ft 177 kts 99°
2026-05-07 10:16 16.28926 -61.66104 2333 ft 171 kts 99°
2026-05-07 10:16 16.28708 -61.64938 2109 ft 157 kts 99°
2026-05-07 10:16 16.28511 -61.63879 1898 ft 144 kts 99°
2026-05-07 10:16 16.28326 -61.62866 1711 ft 140 kts 99°
2026-05-07 10:17 16.28133 -61.61881 1524 ft 140 kts 99°
2026-05-07 10:17 16.27956 -61.60894 1319 ft 139 kts 99°
2026-05-07 10:17 16.27778 -61.59904 1143 ft 139 kts 99°
2026-05-07 10:17 16.27591 -61.58923 935 ft 138 kts 99°
2026-05-07 10:18 16.27408 -61.57938 752 ft 138 kts 99°
2026-05-07 10:18 16.27230 -61.56957 558 ft 137 kts 100°
2026-05-07 10:18 16.27051 -61.55985 370 ft 137 kts 101°
2026-05-07 10:18 16.26868 -61.55014 178 ft 136 kts 100°
2026-05-07 10:19 16.26692 -61.54062 29 ft 131 kts 100°
2026-05-07 10:19 16.26547 -61.53280 30 ft 85 kts 101°
2026-05-07 10:19 16.26468 -61.52854 31 ft 35 kts 101°
2026-05-07 10:19 16.26428 -61.52637 33 ft 27 kts 101°
2026-05-07 10:20 16.26394 -61.52452 35 ft 25 kts 100°
2026-05-07 10:20 16.26364 -61.52287 37 ft 17 kts 95°
2026-05-07 10:20 16.26440 -61.52223 38 ft 15 kts 11°
2026-05-07 10:20 16.26547 -61.52202 38 ft 16 kts 10°
2026-05-07 10:21 16.26661 -61.52180 37 ft 16 kts
2026-05-07 10:21 16.26730 -61.52258 36 ft 17 kts 279°
2026-05-07 10:21 16.26753 -61.52384 35 ft 18 kts 281°
2026-05-07 10:21 16.26778 -61.52519 34 ft 16 kts 281°
2026-05-07 10:22 16.26800 -61.52593 33 ft 5 kts 350°
2026-05-07 10:22 16.26840 -61.52602 33 ft 6 kts 342°
2026-05-07 10:22 16.26886 -61.52611 33 ft 7 kts 351°
2026-05-07 10:22 16.26900 -61.52613 33 ft 0 kts 351°
2026-05-07 10:23 16.26904 -61.52613 33 ft 0 kts 351°